Vancouver, British Columbia

7:18 AM PDT on August 16, 2017 (GMT -0700)
Vancouver International Airport

Weather History for CYVR - January, 2012

Change the Weather History Date:

Thursday, January 5, 2012

  Actual Average Record
Temperature  
Mean Temperature 43 °F -  
Max Temperature 47 °F 43 °F 53 °F (2001)
Min Temperature 39 °F 32 °F 15 °F (2004)
Degree Days  
Heating Degree Days 22    
Moisture  
Dew Point 37 °F    
Average Humidity 74    
Maximum Humidity 87    
Minimum Humidity 56    
Precipitation  
Precipitation 0.00 in 0.19 in - ()
Sea Level Pressure  
Sea Level Pressure 30.21 in    
Wind  
Wind Speed 9 mph ()    
Max Wind Speed 21 mph    
Max Gust Speed 28 mph    
Visibility 17.6 miles    
Events Rain    
Averages and records for this station are not official NWS values.
T = Trace of Precipitation, MM = Missing Value Source: Averaged Metar Reports

Daily Weather History Graph

Daily Weather History Graph

Search for Another Location

Airport or City:

Trip Planner

Search our weather history database for the weather conditions in past years. The results will help you decide how hot, cold, wet, or windy it might be!

Date:

Astronomy

Jan. 05, 2012 Rise Set
Actual Time 8:07 AM PST 4:29 PM PST
Civil Twilight 7:29 AM PST 5:06 PM PST
Nautical Twilight 6:49 AM PST 5:46 PM PST
Astronomical Twilight 6:11 AM PST 6:25 PM PST
Moon 1:35 PM PST (1/5) 4:57 AM PST (1/5)
Length of Visible Light 9h 36m
Length of Day
8h 22m
Waxing Gibbous, 88% of the Moon is Illuminated
Jan 5
Waxing Gibbous
Jan 8
Full
Jan 16
Last Quarter
Jan 22
New
Jan 30
First Quarter

Hourly Weather History & Observations

Time (PST) Temp. Windchill Dew Point Humidity Pressure Visibility Wind Dir Wind Speed Gust Speed Precip Events Conditions
12:00 AM 44.6 °F 40.7 °F 39.2 °F 81% 30.06 in 15.0 mi SE 6.9 mph - N/A   Mostly Cloudy
1:00 AM 46.4 °F 42.9 °F 39.2 °F 76% 30.07 in 12.0 mi South 6.9 mph - N/A Rain Light Rain
1:33 AM 46.4 °F 42.4 °F - N/A% - 15.0 mi SSW 8.1 mph - N/A   Mostly Cloudy
2:00 AM 46.4 °F 42.9 °F 39.2 °F 76% 30.08 in 15.0 mi South 6.9 mph - N/A   Mostly Cloudy
3:00 AM 46.4 °F 40.1 °F 39.2 °F 76% 30.09 in 15.0 mi South 15.0 mph - N/A   Mostly Cloudy
4:00 AM 46 °F - 39 °F 67% 30.12 in 15 mi South 10.4 mph - -   Partly Cloudy
4:00 AM 46.4 °F 41.5 °F 39.2 °F 76% 30.12 in 15.0 mi South 10.4 mph - N/A   Mostly Cloudy
5:00 AM 44.6 °F 38.1 °F 37.4 °F 76% 30.12 in 15.0 mi SSW 13.8 mph - N/A   Scattered Clouds
6:00 AM 44.6 °F 39.7 °F 37.4 °F 76% 30.15 in 15.0 mi South 9.2 mph - N/A   Partly Cloudy
7:00 AM 44.6 °F 39.2 °F 37.4 °F 76% 30.17 in 15.0 mi South 10.4 mph - N/A   Partly Cloudy
8:00 AM 42.8 °F 35.4 °F 33.8 °F 70% 30.19 in 15.0 mi SSW 15.0 mph - N/A   Partly Cloudy
9:00 AM 44.6 °F 38.8 °F 33.8 °F 66% 30.22 in 15.0 mi South 11.5 mph - N/A   Mostly Cloudy
10:00 AM 45 °F - 35 °F 56% 30.24 in 19 mi SSE 12.7 mph - -   Mostly Cloudy
10:00 AM 44.6 °F 38.4 °F 33.8 °F 66% 30.24 in 20.0 mi SSE 12.7 mph - N/A   Mostly Cloudy
11:00 AM 44.6 °F 36.9 °F 37.4 °F 76% 30.25 in 20.0 mi South 18.4 mph 24.2 mph N/A   Mostly Cloudy
12:00 PM 44.6 °F 36.4 °F 37.4 °F 76% 30.25 in 20.0 mi South 20.7 mph 27.6 mph N/A   Mostly Cloudy
1:00 PM 46.4 °F 39.2 °F 37.4 °F 71% 30.25 in 20.0 mi South 18.4 mph 24.2 mph N/A   Mostly Cloudy
2:00 PM 46.4 °F 39.5 °F 39.2 °F 76% 30.24 in 20.0 mi South 17.3 mph 23.0 mph N/A   Mostly Cloudy
3:00 PM 46.4 °F 40.1 °F 37.4 °F 71% 30.24 in 20.0 mi South 15.0 mph - N/A   Scattered Clouds
4:00 PM 46 °F - 37 °F 61% 30.26 in 19 mi South 9.2 mph - -   Scattered Clouds
4:00 PM 46.4 °F 41.9 °F 37.4 °F 71% 30.26 in 20.0 mi South 9.2 mph - N/A   Partly Cloudy
5:00 PM 44.6 °F 39.7 °F 35.6 °F 71% 30.27 in 20.0 mi South 9.2 mph - N/A   Partly Cloudy
6:00 PM 44.6 °F 40.2 °F 37.4 °F 76% 30.28 in 20.0 mi South 8.1 mph - N/A   Mostly Cloudy
7:00 PM 41.0 °F - 35.6 °F 81% 30.29 in 20.0 mi Calm Calm - N/A   Mostly Cloudy
8:00 PM 41.0 °F 37.1 °F 35.6 °F 81% 30.29 in 20.0 mi East 5.8 mph - N/A   Mostly Cloudy
9:00 PM 41.0 °F 36.4 °F 37.4 °F 87% 30.30 in 20.0 mi East 6.9 mph - N/A   Mostly Cloudy
10:00 PM 40 °F - 36 °F 82% 30.30 in 19 mi ESE 6.9 mph - -   Mostly Cloudy
10:00 PM 39.2 °F 35.0 °F 35.6 °F 87% 30.30 in 20.0 mi ESE 5.8 mph - N/A   Mostly Cloudy
11:00 PM 41.0 °F - 35.6 °F 81% 30.32 in 15.0 mi ESE 2.3 mph - N/A   Mostly Cloudy